Weather History for KCGC - July, 2013

Change the Weather History Date:

Monday, July 8, 2013

  Actual Average (KGNV) Record (KGNV)
Temperature  
Mean Temperature 82 °F 81 °F  
Max Temperature 93 °F 91 °F 102 °F (1902)
Min Temperature 71 °F 71 °F 62 °F (1988)
Degree Days  
Heating Degree Days 0 0  
Month to date heating degree days 0  
Since 1 June heating degree days 0  
Since 1 July heating degree days 0  
Cooling Degree Days 17 16  
Month to date cooling degree days 128  
Year to date cooling degree days 1077  
Since 1 June cooling degree days 567  
Growing Degree Days 32 (Base 50)    
Moisture  
Dew Point 71 °F    
Average Humidity 71    
Maximum Humidity 100    
Minimum Humidity 44    
Precipitation  
Precipitation 0.00 in 0.21 in 4.37 in (1950)
Month to date precipitation 1.71  
Year to date precipitation 24.82  
Snow  
Snow 0.00 in 0.00 in 0.00 in ()
Month to date snowfall 0.0  
Since 1 June snowfall 0.0  
Since 1 July snowfall 0.0  
Snow Depth -    
Sea Level Pressure  
Sea Level Pressure 30.13 in    
Wind  
Wind Speed 2 mph (East)    
Max Wind Speed 9 mph    
Max Gust Speed -    
Visibility 10 miles    
Events Thunderstorm    
T = Trace of Precipitation, MM = Missing Value Source: NWS Daily Summary

Daily Weather History Graph

Daily Weather History Graph

Search for Another Location

Airport or City:

Trip Planner

Search our weather history database for the weather conditions in past years. The results will help you decide how hot, cold, wet, or windy it might be!

Date:

Astronomy

Jul. 08, 2013 Rise Set
Actual Time 6:38 AM EDT 8:32 PM EDT
Civil Twilight 6:11 AM EDT 8:58 PM EDT
Nautical Twilight 5:39 AM EDT 9:31 PM EDT
Astronomical Twilight 5:05 AM EDT 10:05 PM EDT
Moon 6:59 AM EDT (7/8) 8:42 PM EDT (7/8)
Length of Visible Light 14h 47m
Length of Day
13h 53m
New Moon, 0% of the Moon is Illuminated
Jul 8
New Moon
Jul 15
First Quarter
Jul 22
Full
Jul 29
Last Quarter
Aug 6
New

Hourly Weather History & Observations

Time (EDT) Temp. Heat Index Dew Point Humidity Pressure Visibility Wind Dir Wind Speed Gust Speed Precip Events Conditions
12:15 AM 75.2 °F - 71.6 °F 89% 30.14 in 10.0 mi Calm Calm - N/A   Clear
12:35 AM 73.4 °F - 71.6 °F 94% 30.14 in 10.0 mi Calm Calm - N/A   Clear
12:55 AM 75.2 °F - 71.6 °F 89% 30.14 in 10.0 mi Calm Calm - N/A   Clear
1:15 AM 73.4 °F - 71.6 °F 94% 30.14 in 10.0 mi Calm Calm - N/A   Clear
1:35 AM 73.4 °F - 71.6 °F 94% 30.14 in 10.0 mi Calm Calm - N/A   Clear
1:55 AM 73.4 °F - 71.6 °F 94% 30.13 in 10.0 mi Calm Calm - N/A   Clear
2:15 AM 73.4 °F - 71.6 °F 94% 30.13 in 10.0 mi Calm Calm - N/A   Clear
2:35 AM 73.4 °F - 71.6 °F 94% 30.12 in 10.0 mi Calm Calm - N/A   Clear
2:55 AM 73.4 °F - 71.6 °F 94% 30.12 in 10.0 mi Calm Calm - N/A   Clear
3:15 AM 73.4 °F - 71.6 °F 94% 30.12 in 10.0 mi Calm Calm - N/A   Clear
3:35 AM 73.4 °F - 71.6 °F 94% 30.12 in 10.0 mi Calm Calm - N/A   Clear
3:55 AM 73.4 °F - 71.6 °F 94% 30.12 in 10.0 mi Calm Calm - N/A   Clear
4:15 AM 73.4 °F - 71.6 °F 94% 30.12 in 10.0 mi Calm Calm - N/A   Clear
4:35 AM 73.4 °F - 71.6 °F 94% 30.12 in 10.0 mi Calm Calm - N/A   Clear
4:55 AM 71.6 °F - 71.6 °F 100% 30.12 in 10.0 mi Calm Calm - N/A   Clear
5:15 AM 71.6 °F - 71.6 °F 100% 30.11 in 10.0 mi Calm Calm - N/A   Clear
5:35 AM 71.6 °F - 71.6 °F 100% 30.12 in 10.0 mi Calm Calm - N/A   Clear
5:55 AM 71.6 °F - 71.6 °F 100% 30.11 in 10.0 mi Calm Calm - N/A   Clear
6:15 AM 71.6 °F - 69.8 °F 94% 30.12 in 7.0 mi Calm Calm - N/A   Clear
6:55 AM 71.6 °F - 71.6 °F 100% 30.13 in 5.0 mi Calm Calm - N/A   Clear
7:15 AM 71.6 °F - 71.6 °F 100% 30.14 in 7.0 mi Calm Calm - N/A   Clear
7:35 AM 73.4 °F - 73.4 °F 100% 30.14 in 10.0 mi East 3.5 mph - N/A   Clear
7:55 AM 77.0 °F - 73.4 °F 89% 30.14 in 10.0 mi East 4.6 mph - N/A   Clear
8:15 AM 77.0 °F - 73.4 °F 89% 30.15 in 10.0 mi East 5.8 mph - N/A   Clear
8:35 AM 78.8 °F - 73.4 °F 83% 30.15 in 10.0 mi East 3.5 mph - N/A   Clear
8:55 AM 80.6 °F 85.4 °F 73.4 °F 79% 30.16 in 10.0 mi ESE 4.6 mph - N/A   Scattered Clouds
9:15 AM 80.6 °F 85.4 °F 73.4 °F 79% 30.16 in 10.0 mi ESE 3.5 mph - N/A   Scattered Clouds
9:35 AM 82.4 °F 88.2 °F 73.4 °F 74% 30.17 in 10.0 mi East 6.9 mph - N/A   Mostly Cloudy
9:55 AM 82.4 °F 87.2 °F 71.6 °F 70% 30.17 in 10.0 mi ESE 3.5 mph - N/A   Scattered Clouds
10:15 AM 84.2 °F 89.6 °F 71.6 °F 66% 30.17 in 10.0 mi ESE 3.5 mph - N/A   Scattered Clouds
10:35 AM 86.0 °F 90.4 °F 69.8 °F 58% 30.17 in 10.0 mi ESE 3.5 mph - N/A   Scattered Clouds
10:55 AM 86.0 °F 91.8 °F 71.6 °F 62% 30.17 in 10.0 mi ENE 8.1 mph - N/A   Scattered Clouds
11:15 AM 87.8 °F 92.6 °F 69.8 °F 55% 30.17 in 10.0 mi NE 5.8 mph - N/A   Clear
11:35 AM 87.8 °F 92.6 °F 69.8 °F 55% 30.17 in 10.0 mi ENE 9.2 mph - N/A   Scattered Clouds
11:55 AM 87.8 °F 92.6 °F 69.8 °F 55% 30.17 in 10.0 mi East 6.9 mph - N/A   Scattered Clouds
12:15 PM 87.8 °F 92.6 °F 69.8 °F 55% 30.17 in 10.0 mi East 9.2 mph - N/A   Scattered Clouds
12:35 PM 89.6 °F 94.7 °F 69.8 °F 52% 30.17 in 10.0 mi East 6.9 mph - N/A   Scattered Clouds
12:55 PM 89.6 °F 94.7 °F 69.8 °F 52% 30.16 in 10.0 mi East 6.9 mph - N/A   Scattered Clouds
1:15 PM 89.6 °F 94.7 °F 69.8 °F 52% 30.16 in 10.0 mi East 6.9 mph - N/A   Scattered Clouds
1:35 PM 91.4 °F 96.8 °F 69.8 °F 49% 30.15 in 10.0 mi East 8.1 mph - N/A   Scattered Clouds
1:55 PM 89.6 °F 93.4 °F 68.0 °F 49% 30.14 in 10.0 mi East 6.9 mph - N/A   Scattered Clouds
2:15 PM 91.4 °F 95.4 °F 68.0 °F 46% 30.14 in 10.0 mi East 6.9 mph - N/A   Scattered Clouds
2:35 PM 91.4 °F 96.8 °F 69.8 °F 49% 30.14 in 10.0 mi ENE 5.8 mph - N/A   Scattered Clouds
2:55 PM 91.4 °F 96.8 °F 69.8 °F 49% 30.13 in 10.0 mi SE 4.6 mph - N/A   Scattered Clouds
3:15 PM 91.4 °F 95.4 °F 68.0 °F 46% 30.12 in 10.0 mi SE 5.8 mph - N/A   Scattered Clouds
3:35 PM 91.4 °F 96.8 °F 69.8 °F 49% 30.11 in 10.0 mi ENE 6.9 mph - N/A   Scattered Clouds
3:55 PM 93.2 °F 97.7 °F 68.0 °F 44% 30.11 in 10.0 mi East 6.9 mph - N/A   Scattered Clouds
4:15 PM 91.4 °F 95.4 °F 68.0 °F 46% 30.10 in 10.0 mi East 6.9 mph - N/A   Clear
4:35 PM 93.2 °F 97.7 °F 68.0 °F 44% 30.09 in 10.0 mi Calm Calm - N/A   Scattered Clouds
4:55 PM 91.4 °F 95.4 °F 68.0 °F 46% 30.09 in 10.0 mi East 8.1 mph - N/A   Scattered Clouds
5:15 PM 91.4 °F 95.4 °F 68.0 °F 46% 30.08 in 10.0 mi East 8.1 mph - N/A   Scattered Clouds
5:35 PM 93.2 °F 97.7 °F 68.0 °F 44% 30.08 in 10.0 mi East 3.5 mph - N/A   Scattered Clouds
5:55 PM 91.4 °F 95.4 °F 68.0 °F 46% 30.08 in 10.0 mi ENE 9.2 mph - N/A   Mostly Cloudy
6:15 PM 87.8 °F 92.6 °F 69.8 °F 55% 30.08 in 10.0 mi East 5.8 mph - N/A   Overcast
6:35 PM 89.6 °F 94.7 °F 69.8 °F 52% 30.09 in 10.0 mi Calm Calm - N/A   Mostly Cloudy
6:55 PM 87.8 °F 93.8 °F 71.6 °F 58% 30.08 in 10.0 mi Calm Calm - N/A   Overcast
7:15 PM 86.0 °F 91.8 °F 71.6 °F 62% 30.08 in 10.0 mi Calm Calm - N/A Thunderstorm Overcast
7:35 PM 86.0 °F 91.8 °F 71.6 °F 62% 30.09 in 10.0 mi Calm Calm - N/A   Scattered Clouds
7:55 PM 84.2 °F 89.6 °F 71.6 °F 66% 30.10 in 10.0 mi Calm Calm - N/A   Mostly Cloudy
8:15 PM 82.4 °F 88.2 °F 73.4 °F 74% 30.11 in 10.0 mi Calm Calm - N/A   Mostly Cloudy
8:35 PM 82.4 °F 88.2 °F 73.4 °F 74% 30.12 in 10.0 mi Calm Calm - N/A   Mostly Cloudy
8:55 PM 82.4 °F 88.2 °F 73.4 °F 74% 30.13 in 10.0 mi Calm Calm - N/A   Overcast
9:15 PM 82.4 °F 88.2 °F 73.4 °F 74% 30.13 in 10.0 mi Calm Calm - N/A   Mostly Cloudy
9:35 PM 82.4 °F 87.2 °F 71.6 °F 70% 30.13 in 10.0 mi Calm Calm - N/A   Scattered Clouds
9:55 PM 82.4 °F 87.2 °F 71.6 °F 70% 30.14 in 10.0 mi East 3.5 mph - N/A   Clear
10:15 PM 82.4 °F 86.3 °F 69.8 °F 66% 30.15 in 10.0 mi ESE 4.6 mph - N/A   Mostly Cloudy
10:35 PM 82.4 °F 86.3 °F 69.8 °F 66% 30.15 in 10.0 mi East 3.5 mph - N/A   Scattered Clouds
10:55 PM 82.4 °F 86.3 °F 69.8 °F 66% 30.16 in 10.0 mi East 4.6 mph - N/A   Mostly Cloudy
11:15 PM 82.4 °F 86.3 °F 69.8 °F 66% 30.17 in 10.0 mi East 4.6 mph - N/A   Mostly Cloudy
11:35 PM 82.4 °F 86.3 °F 69.8 °F 66% 30.17 in 10.0 mi SE 3.5 mph - N/A   Mostly Cloudy
11:55 PM 80.6 °F 84.6 °F 71.6 °F 74% 30.17 in 10.0 mi ESE 3.5 mph - N/A   Scattered Clouds